CW7841 Weather Reports


Display with metric or nautical units.
time (UTC)temp
F
wind
direction
speed
MPH
gust
MPH
rain 1hr
in
rain 24hr
in
rain mn
in
humidity
%
barometer
mb
20170428134622 81 136 3.0 7.0 0.00 0.00 0.00 84 1018.8
20170428132622 80 173 0.0 7.0 0.00 0.00 0.00 85 1018.8
20170428131622 80 151 6.0 7.0 0.00 0.00 0.00 87 1018.4
20170428130622 80 136 0.0 6.0 0.00 0.00 0.00 88 1018.5
20170428125122 79 177 0.0 10.0 0.00 0.00 0.00 90 1018.2
20170428124122 79 151 6.0 10.0 0.00 0.00 0.00 92 1018.1
20170428123622 78 186 0.0 6.0 0.00 0.00 0.00 91 1018.2
20170428123123 78 129 5.0 5.0 0.00 0.00 0.00 93 1018.0
20170428122622 78 158 2.0 5.0 0.00 0.00 0.00 92 1018.2
20170428121122 78 140 1.0 3.0 0.00 0.00 0.00 94 1017.9
20170428120122 77 161 0.0 0.0 0.00 0.00 0.00 91 1017.9
20170428115622 77 162 0.0 0.0 0.00 0.00 0.00 91 1017.8
20170428115122 77 162 0.0 0.0 0.00 0.00 0.00 91 1017.7
20170428114622 77 162 0.0 0.0 0.00 0.00 0.00 91 1017.6
20170428112123 77 162 0.0 0.0 0.00 0.00 0.00 90 1017.3
20170428111122 77 162 0.0 0.0 0.00 0.00 0.00 89 1016.9
20170428110623 77 162 0.0 0.0 0.00 0.00 0.00 89 1016.8
20170428110122 77 162 0.0 0.0 0.00 0.00 0.00 89 1016.9
20170428105622 77 161 0.0 0.0 0.00 0.00 0.00 89 1016.7
20170428105122 77 161 0.0 0.0 0.00 0.00 0.00 89 1016.7
20170428104122 77 162 0.0 0.0 0.00 0.00 0.00 89 1016.3
20170428103623 77 162 0.0 0.0 0.00 0.00 0.00 89 1016.7
20170428102623 77 162 0.0 0.0 0.00 0.00 0.00 89 1016.1
20170428102123 77 162 0.0 0.0 0.00 0.00 0.00 89 1016.4
20170428101623 77 162 0.0 0.0 0.00 0.00 0.00 89 1016.1
20170428101123 77 162 0.0 0.0 0.00 0.00 0.00 89 1016.3
20170428100623 77 162 0.0 0.0 0.00 0.00 0.00 89 1016.0
20170428100122 77 162 0.0 0.0 0.00 0.00 0.00 89 1016.1
20170428095623 77 162 0.0 0.0 0.00 0.00 0.00 89 1016.2
20170428093122 77 162 0.0 0.0 0.00 0.00 0.00 88 1016.0
20170428092123 77 162 0.0 0.0 0.00 0.00 0.00 88 1015.9
20170428091123 78 110 0.0 0.0 0.00 0.00 0.00 100 1015.7
20170428084623 78 119 0.0 3.0 0.00 0.00 0.00 100 1015.5
20170428084123 78 125 0.0 3.0 0.00 0.00 0.00 95 1015.3
20170428082623 78 160 0.0 3.0 0.00 0.00 0.00 88 1015.5
20170428082123 78 159 0.0 3.0 0.00 0.00 0.00 88 1015.1
20170428081623 78 158 0.0 0.0 0.00 0.00 0.00 88 1015.0
20170428080123 78 159 0.0 0.0 0.00 0.00 0.00 88 1015.1
20170428074623 78 136 0.0 4.0 0.00 0.00 0.00 90 1015.1
20170428074123 78 156 0.0 4.0 0.00 0.00 0.00 88 1015.1
20170428073623 78 158 0.0 4.0 0.00 0.00 0.00 87 1015.2
20170428073123 78 161 0.0 4.0 0.00 0.00 0.00 87 1015.2
20170428072623 78 161 0.0 4.0 0.00 0.00 0.00 87 1015.3
20170428072123 78 161 0.0 4.0 0.00 0.00 0.00 87 1015.2
20170428071623 78 172 0.0 3.0 0.00 0.00 0.00 87 1015.2
20170428071123 78 175 0.0 3.0 0.00 0.00 0.00 87 1015.1
20170428070623 78 174 0.0 3.0 0.00 0.00 0.00 87 1015.1
20170428070123 78 172 3.0 3.0 0.00 0.00 0.00 87 1015.4
20170428065623 78 175 0.0 5.0 0.00 0.00 0.00 87 1015.4
20170428065123 78 163 0.0 5.0 0.00 0.00 0.00 87 1015.3
20170428064623 78 170 0.0 5.0 0.00 0.00 0.00 88 1015.5
20170428064123 78 149 0.0 5.0 0.00 0.00 0.00 89 1015.2
20170428063623 78 154 0.0 5.0 0.00 0.00 0.00 87 1015.3
20170428062623 78 161 0.0 5.0 0.00 0.00 0.00 89 1015.5
20170428062123 78 167 0.0 5.0 0.00 0.00 0.00 87 1015.4
20170428061123 78 163 0.0 3.0 0.00 0.00 0.00 87 1015.2
20170428060623 78 117 1.0 1.0 0.00 0.00 0.00 64 1015.3
20170428054123 78 169 0.0 2.0 0.00 0.00 0.00 87 1015.5
20170428051623 78 160 0.0 0.0 0.00 0.00 0.00 88 1015.0
20170428051123 79 159 0.0 0.0 0.00 0.00 0.00 88 1015.1
20170428050623 79 160 0.0 0.0 0.00 0.00 0.00 88 1015.0
20170428050123 79 160 0.0 0.0 0.00 0.00 0.00 88 1015.2
20170428045623 79 171 0.0 6.0 0.00 0.00 0.00 88 1015.2
20170428045123 79 171 0.0 6.0 0.00 0.00 0.00 88 1015.0
20170428044623 79 177 0.0 6.0 0.00 0.00 0.00 88 1014.9
20170428043623 79 193 0.0 6.0 0.00 0.00 0.00 88 1015.0
20170428042123 79 163 0.0 5.0 0.00 0.00 0.00 88 1014.9
20170428041123 79 164 0.0 0.0 0.00 0.00 0.00 88 1014.6
20170428040623 79 164 0.0 0.0 0.00 0.00 0.00 88 1014.9
20170428035623 79 151 0.0 8.0 0.00 0.00 0.00 88 1014.7
20170428035123 79 158 0.0 8.0 0.00 0.00 0.00 88 1014.9
20170428034623 79 158 0.0 8.0 0.00 0.00 0.00 88 1014.8
20170428033123 79 160 0.0 8.0 0.00 0.00 0.00 88 1014.8
20170428032623 79 155 0.0 8.0 0.00 0.00 0.00 88 1014.7
20170428032123 79 166 0.0 8.0 0.00 0.00 0.00 89 1015.0
20170428031623 79 119 0.0 8.0 0.00 0.00 0.00 89 1014.8
20170428030123 79 166 0.0 5.0 0.00 0.00 0.00 88 1014.9
20170428025124 79 164 1.0 10.0 0.00 0.00 0.00 88 1014.8
20170428024623 79 135 4.0 10.0 0.00 0.00 0.00 88 1014.8
20170428024123 79 142 0.0 10.0 0.00 0.00 0.00 88 1014.7
20170428023624 79 143 4.0 10.0 0.00 0.00 0.00 88 1014.8
20170428023123 79 133 0.0 10.0 0.00 0.00 0.00 87 1014.8
20170428022623 80 181 0.0 10.0 0.00 0.00 0.00 87 1014.6
20170428022124 80 129 0.0 10.0 0.00 0.00 0.00 87 1014.8
20170428020124 80 159 0.0 7.0 0.00 0.00 0.00 87 1014.9
20170428015624 80 169 0.0 10.0 0.00 0.00 0.00 50 1015.0
20170428014623 80 143 2.0 10.0 0.00 0.00 0.00 86 1014.4
20170428014124 80 143 0.0 10.0 0.00 0.00 0.00 87 1014.2
20170428013624 80 143 0.0 9.0 0.00 0.00 0.00 86 1014.0
20170428013124 80 155 0.0 9.0 0.00 0.00 0.00 86 1014.1
20170428012124 80 133 0.0 9.0 0.00 0.00 0.00 86 1014.2
20170428011624 80 143 0.0 8.0 0.00 0.00 0.00 86 1013.9
20170428011124 80 130 3.0 8.0 0.00 0.00 0.00 87 1014.0
20170428005624 80 123 0.0 13.0 0.00 0.00 0.00 85 1013.7
20170428005124 80 146 2.0 10.0 0.00 0.00 0.00 85 1014.0
20170428004624 80 112 7.0 10.0 0.00 0.00 0.00 86 1013.7
20170428003624 81 143 1.0 10.0 0.00 0.00 0.00 86 1014.0
20170428002624 81 151 0.0 9.0 0.00 0.00 0.00 84 1013.6
20170428001624 81 176 0.0 9.0 0.00 0.00 0.00 84 1013.4
20170428000624 81 184 0.0 9.0 0.00 0.00 0.00 84 1013.6
20170428000123 81 150 0.0 5.0 0.00 0.00 0.00 83 1013.2
20170427235624 81 136 0.0 11.0 0.00 0.00 0.00 83 1013.8
20170427234624 82 131 0.0 11.0 0.00 0.00 0.00 83 1013.1
20170427233624 82 147 2.0 11.0 0.00 0.00 0.00 82 1013.1
20170427233124 82 147 6.0 11.0 0.00 0.00 0.00 83 1013.1
20170427232624 82 126 2.0 11.0 0.00 0.00 0.00 83 1012.9
20170427232124 82 139 3.0 11.0 0.00 0.00 0.00 82 1013.2
20170427231624 82 135 0.0 11.0 0.00 0.00 0.00 83 1013.1
20170427230624 82 149 0.0 11.0 0.00 0.00 0.00 82 1012.9
20170427225624 83 132 3.0 16.0 0.00 0.00 0.00 82 1012.9
20170427224624 83 184 0.0 16.0 0.00 0.00 0.00 82 1012.7
20170427224124 83 106 0.0 16.0 0.00 0.00 0.00 81 1012.8
20170427223624 83 160 2.0 16.0 0.00 0.00 0.00 80 1012.8
20170427223124 83 117 0.0 16.0 0.00 0.00 0.00 81 1012.9
20170427222624 83 151 0.0 16.0 0.00 0.00 0.00 80 1013.1
20170427222124 84 115 0.0 16.0 0.00 0.00 0.00 82 1012.7
20170427221624 84 135 1.0 15.0 0.00 0.00 0.00 79 1012.6
20170427220124 84 156 0.0 4.0 0.00 0.00 0.00 78 1012.6
20170427215624 84 132 2.0 17.0 0.00 0.00 0.00 77 1012.6
20170427214624 85 104 8.0 17.0 0.00 0.00 0.00 76 1012.6
20170427213624 85 130 3.0 17.0 0.00 0.00 0.00 76 1012.8
20170427213124 85 115 3.0 17.0 0.00 0.00 0.00 75 1012.6
20170427211624 85 160 5.0 17.0 0.00 0.00 0.00 75 1012.7
20170427205624 86 138 1.0 18.0 0.00 0.00 0.00 74 1012.9
20170427204624 86 156 8.0 18.0 0.00 0.00 0.00 73 1012.7
20170427204124 86 121 6.0 18.0 0.00 0.00 0.00 72 1012.9
20170427203626 86 140 9.0 18.0 0.00 0.00 0.00 71 1012.8
20170427202624 86 129 14.0 18.0 0.00 0.00 0.00 71 1012.7
20170427201919 86 142 3.0 18.0 0.00 0.00 0.00 75 1013.0
20170427200624 86 118 9.0 16.0 0.00 0.00 0.00 76 1012.9
20170427195124 86 118 4.0 19.0 0.00 0.00 0.00 73 1013.1
20170427194624 86 156 2.0 19.0 0.00 0.00 0.00 72 1013.2
20170427194124 86 123 2.0 19.0 0.00 0.00 0.00 72 1013.5
20170427193624 86 112 5.0 19.0 0.00 0.00 0.00 73 1013.6
20170427193124 86 106 11.0 19.0 0.00 0.00 0.00 73 1013.4
20170427191124 86 121 4.0 16.0 0.00 0.00 0.00 73 1013.9
20170427185624 86 108 4.0 18.0 0.00 0.00 0.00 75 1013.8
20170427185124 86 157 5.0 18.0 0.00 0.00 0.00 75 1013.8
20170427183624 86 155 3.0 16.0 0.00 0.00 0.00 74 1014.2
20170427182624 86 113 1.0 16.0 0.00 0.00 0.00 74 1014.6
20170427175625 86 172 8.0 18.0 0.00 0.00 0.00 74 1014.6
20170427174624 86 110 10.0 18.0 0.00 0.00 0.00 75 1014.6
20170427173625 86 103 7.0 18.0 0.00 0.00 0.00 75 1014.6
20170427172625 86 115 13.0 18.0 0.00 0.00 0.00 76 1014.8
20170427170125 86 123 5.0 9.0 0.00 0.00 0.00 76 1015.0
20170427165625 86 135 8.0 16.0 0.00 0.00 0.00 74 1014.8
20170427165126 86 105 0.0 16.0 0.00 0.00 0.00 76 1014.9
20170427164625 85 116 1.0 16.0 0.00 0.00 0.00 76 1015.2
20170427164125 85 116 10.0 16.0 0.00 0.00 0.00 76 1015.2
20170427163124 85 109 6.0 16.0 0.00 0.00 0.00 77 1015.1
20170427162624 85 93 6.0 12.0 0.00 0.00 0.00 76 1015.1
20170427162125 85 123 0.0 12.0 0.00 0.00 0.00 77 1015.0
20170427161625 84 120 4.0 12.0 0.00 0.00 0.00 77 1015.0
20170427161125 84 110 8.0 12.0 0.00 0.00 0.00 77 1015.2
20170427160624 84 112 0.0 10.0 0.00 0.00 0.00 77 1015.1
20170427160125 85 93 3.0 8.0 0.00 0.00 0.00 78 1015.4
20170427154125 83 125 5.0 11.0 0.00 0.00 0.00 79 1015.3
20170427153625 84 95 3.0 10.0 0.00 0.00 0.00 78 1015.5
20170427153125 84 136 3.0 10.0 0.00 0.00 0.00 78 1015.2
20170427152625 84 119 1.0 10.0 0.00 0.00 0.00 77 1015.1
20170427151125 84 97 3.0 7.0 0.00 0.00 0.00 78 1015.2
20170427150625 84 121 0.0 7.0 0.00 0.00 0.00 76 1015.2
20170427150125 84 143 1.0 7.0 0.00 0.00 0.00 77 1015.1
20170427145625 83 147 0.0 8.0 0.00 0.00 0.00 78 1015.3
20170427143625 82 144 0.0 5.0 0.00 0.00 0.00 75 1015.0
20170427142625 81 174 0.0 5.0 0.00 0.00 0.00 79 1014.8
20170427142125 80 157 0.0 5.0 0.00 0.00 0.00 79 1015.0
20170427141625 80 157 0.0 5.0 0.00 0.00 0.00 79 1014.9
20170427141125 80 166 0.0 0.0 0.00 0.00 0.00 80 1014.7